Terug naar catalogus

LEMUR 2 KREMPEL-BRO1

ActiefWetenschapSSO
NORAD 63357·PAYLOAD·🇺🇸 United States

Gelanceerd Mar 26, 2025 vanaf Rocket Lab Launch Complex 1

Loading…

Volgende Passages (komende 24 uur)

TLE

VersSource: Space-Track

Epoch: Sep 14, 2026, 21:19 UTC

1 63357U 25061G   26257.88850669  .00004670  00000-0  25170-3 0  9995
2 63357  97.5716 233.3356 0016959 302.1026  57.8560 15.15169033 81217

Volg LEMUR 2 KREMPEL-BRO1 in realtime met AllMySat

Download on the App Store